ATLAS 5 CENTAUR DEB, 43995

Orbit data source: Space-Track

ATLAS 5 CENTAUR DEB, 43995 is space debris in HEO originally from a launch on Wed, 17 Sep 2014 UTC launched from the Air Force Eastern Test Range (AFETR). Debris objects in space refer to the collection of defunct objects orbiting the Earth. Examples of debris include non-operational satellites, rocket bodies, and fragments generated from explosions, collisions, or faulty payload assembly.

Loading next visibility...
Identifier
43995, 2014-055BA
Orbit
HEO
Country
Flag of USUS
Related business
Flag of USUnited Launch Alliance/Lockheed Martin (US)
Manufacturer
Unknown
Mission
Spacecraft
Bus & Motor
Unknown
Mass
Unknown
Launch date (UTC)
2014-09-17 (12 years ago)
Launch vehicle
Unknown
Launch site
Air Force Eastern Test Range (AFETR)
Object type
Payload
Rocket body
Debris
Shape & HBR
Unknown shape, 1.1 m
Radar Cross Section
Medium (>0.1 m² and <1 m²)

Expand to show TLE details & history
Last TLE update: 2 days ago

TLE from 2 days ago
0 ATLAS 5 CENTAUR DEB
1 43995U 14055BA  26170.95162522 -.00000053  00000-0  00000+0 0  9991
2 43995  20.4796 133.4088 4773474 187.6627 161.1024  1.88988143 53126
Epoch: 2026-06-19T22:50Z
TLE epoch observation values (Epoch: 2026-06-19T22:50:20.419Z)
Latitude
Longitude
-117.38961°
Altitude
34,120.792 km
Speed
2.294 km/s
True Right ascension
08h 53m 28s
True Declination
0° 00' 00"
Sunlit
Object was in daylight at epoch
Visualization orbit readout
Latitude
Unknown
Longitude
Unknown
Altitude
Unknown
Speed
Unknown
Apparent Right ascension
Unknown
Apparent Declination
Unknown
Sunlit
N/A
Visualization observer readout
Local Sidereal Time
21:39:25
Azimuth
Unknown
Elevation
Unknown
Doppler factor
Unknown
Orbital elements
Apogee altitude
34,449.901 km
Perigee altitude
8,065.913 km
Semi-major axis
27,636.044 km
Eccentricity
0.47735
Inclination
20.4796°
RAAN
133.4088°
Arg. of periapsis
187.6627°
True anomaly
172.3505°
Mean anomaly
161.1024°
Eccentric anomaly
167.1739°
Mean motion
0.47242 °/min
Orbital period
762.03 mins
BSTAR
0
Loading maneuver chart data...
Computing Atmospheric mass density...

Documentation

Showing up to 5 results
|